(355879) = 2004 RK128 = 2008 VR39

Discovered at Kitt Peak on 2008-11-02 by Spacewatch.

Orbit

Orbit type: Main Belt

Note: WebGL enabled browser required.

epoch2024-03-31.0
epoch JD2460400.5
perihelion date2023-02-16.55384
perihelion JD2459992.05384
argument of perihelion (°)86.08262
ascending node (°)341.62170
inclination (°)3.68681
eccentricity0.1368278
perihelion distance (AU)2.0121264
Tisserand w.r.t. Jupiter3.6
ΔV w.r.t. Earth (km/sec)8.9
semimajor axis (AU)2.3310834
mean anomaly (°)113.11024
mean daily motion (°/day)0.27692820
aphelion distance (AU)2.650
period (years)3.56
P-vector [x]0.37873540
P-vector [y]0.82157355
P-vector [z]0.42611782
Q-vector [x]-0.92528291
Q-vector [y]0.34620965
Q-vector [z]0.15488838
absolute magnitude17.94
phase slope0.15
uncertainty0
referenceMPEC 2024-F50
observations used252
oppositions10
arc length (days)7133
first opposition used2004
last opposition used2024
residual rms (arc-secs)0.73
perturbers coarse indicatorM-v
perturbers precise indicator003Ek
first observation date used2004-09-07.0
last observation date used2024-03-19.0
computer nameMPCLINUX
JD of orbit computation2456376.477118
perihelion JD uncertainty (days)1.2244E-04
argument of perihelion uncertainty (°)1.0325E-04
ascending node uncertainty (°)9.4690E-05
inclination uncertainty (°)7.6384E-06
eccentricity uncertainty 7.7457E-08
perihelion distance uncertainty (AU)1.6192E-07
Minimum Orbit Intersection Distances (in AU)
for orbit epoch: 2460400.5, reference: E2024-G51
Mercury1.70366
Venus1.29398
Earth1.03037
Mars0.45933
Jupiter2.61783
Saturn6.98971
Uranus16.0329
Neptune27.6924

Observations

260 total observations over interval: 2004 09 07.34380 – 2024 03 19.525304
These data are available for download (format description).

Date (UT) J2000 RA J2000 Dec Magn Location Ref
2004 09 07.34380 23 17 08.34 -03 58 06.4 20.4 V 691 – Steward Observatory, Kitt Peak-Spacewatch MPS 113155
2004 09 07.37110 23 17 06.67 -03 58 12.8 20.4 V 691 – Steward Observatory, Kitt Peak-Spacewatch MPS 113155
2004 09 07.40008 23 17 04.88 -03 58 19.5 20.3 V 691 – Steward Observatory, Kitt Peak-Spacewatch MPS 113155
2004 09 11.31504 23 13 11.67 -04 14 00.0 20.1 V 691 – Steward Observatory, Kitt Peak-Spacewatch MPS 113155
2004 09 11.34345 23 13 09.88 -04 14 06.9 20.2 V 691 – Steward Observatory, Kitt Peak-Spacewatch MPS 113155
2004 09 11.37096 23 13 08.16 -04 14 13.8 20.1 V 691 – Steward Observatory, Kitt Peak-Spacewatch MPS 113155
2006 02 07.40649 11 47 33.93 +01 25 17.4 21.0 V G96 – Mt. Lemmon Survey MPS 268837
2006 02 07.41343 11 47 33.64 +01 25 18.6 21.1 V G96 – Mt. Lemmon Survey MPS 268837
2006 02 07.42027 11 47 33.39 +01 25 18.9 21.7 V G96 – Mt. Lemmon Survey MPS 268837
2006 02 07.42718 11 47 33.18 +01 25 18.7 21.6 V G96 – Mt. Lemmon Survey MPS 268837
2006 02 24.28205 11 35 18.79 +02 11 29.4 20.6 V 691 – Steward Observatory, Kitt Peak-Spacewatch MPS 268837
2006 02 24.29936 11 35 17.83 +02 11 33.6 21.1 V 691 – Steward Observatory, Kitt Peak-Spacewatch MPS 268837
2006 02 24.31666 11 35 16.84 +02 11 37.8 21.1 V 691 – Steward Observatory, Kitt Peak-Spacewatch MPS 268837
2008 10 25.42518 05 04 58.25 +28 54 31.0 21.3 V 691 – Steward Observatory, Kitt Peak-Spacewatch MPS 268837
2008 10 25.44319 05 04 58.17 +28 54 34.2 20.8 V 691 – Steward Observatory, Kitt Peak-Spacewatch MPS 268837
2008 10 25.46089 05 04 58.07 +28 54 37.1 20.6 V 691 – Steward Observatory, Kitt Peak-Spacewatch MPS 268837
2008 11 02.43451 05 03 16.17 +29 15 15.7   691 – Steward Observatory, Kitt Peak-Spacewatch MPS 265425
2008 11 02.45215 05 03 15.70 +29 15 17.7   691 – Steward Observatory, Kitt Peak-Spacewatch MPS 265425
2008 11 02.46979 05 03 15.23 +29 15 20.3   691 – Steward Observatory, Kitt Peak-Spacewatch MPS 265425
2008 11 06.42897 05 01 25.97 +29 23 24.2 20.3 V 691 – Steward Observatory, Kitt Peak-Spacewatch MPS 265425
2008 11 06.44660 05 01 25.34 +29 23 26.1 20.4 V 691 – Steward Observatory, Kitt Peak-Spacewatch MPS 265425
2008 11 06.46423 05 01 24.71 +29 23 28.0 20.5 V 691 – Steward Observatory, Kitt Peak-Spacewatch MPS 265425
2008 12 01.37300 04 38 30.66 +29 24 52.7 19.3 V G96 – Mt. Lemmon Survey MPS 268837
2008 12 01.38456 04 38 29.83 +29 24 51.4 19.4 V G96 – Mt. Lemmon Survey MPS 268837
2008 12 01.39337 04 38 29.18 +29 24 50.4 19.2 V G96 – Mt. Lemmon Survey MPS 268837
2008 12 01.40360 04 38 28.46 +29 24 49.0 19.2 V G96 – Mt. Lemmon Survey MPS 268837
2008 12 07.23409 04 31 51.63 +29 11 08.7 19.4 V G96 – Mt. Lemmon Survey MPS 309545
2008 12 07.23861 04 31 51.31 +29 11 07.9 19.3 V G96 – Mt. Lemmon Survey MPS 309545
2008 12 07.24307 04 31 50.98 +29 11 07.2 19.2 V G96 – Mt. Lemmon Survey MPS 309545
2008 12 07.24754 04 31 50.70 +29 11 06.5 19.3 V G96 – Mt. Lemmon Survey MPS 309545
2011 09 23.19713 21 44 31.52 -13 56 01.0 21.5 V G96 – Mt. Lemmon Survey MPS 407183
2011 09 23.20235 21 44 31.30 -13 56 02.1 21.5 V G96 – Mt. Lemmon Survey MPS 407183
2011 09 23.20756 21 44 31.09 -13 56 02.2 20.9 V G96 – Mt. Lemmon Survey MPS 407183
2011 09 23.21280 21 44 30.87 -13 56 02.4 21.1 V G96 – Mt. Lemmon Survey MPS 407183
2013 01 17.49023 10 50 26.73 +09 27 57.4 21.2 V G96 – Mt. Lemmon Survey MPS 450992
2013 01 17.49590 10 50 26.62 +09 27 58.1 21.2 V G96 – Mt. Lemmon Survey MPS 450992
2013 01 17.50156 10 50 26.48 +09 27 58.2 21.0 V G96 – Mt. Lemmon Survey MPS 450992
2013 01 17.50721 10 50 26.34 +09 27 58.1 21.3 V G96 – Mt. Lemmon Survey MPS 450992
2013 02 16.23373 10 27 54.98 +10 52 06.7 20.8 V 691 – Steward Observatory, Kitt Peak-Spacewatch MPS 456397
2013 02 16.25145 10 27 53.90 +10 52 10.8 20.2 V 691 – Steward Observatory, Kitt Peak-Spacewatch MPS 456397
2013 02 16.26919 10 27 52.74 +10 52 15.3 20.2 V 691 – Steward Observatory, Kitt Peak-Spacewatch MPS 456397
2013 02 17.37545 10 26 42.86 +10 56 40.1 20.0 V G96 – Mt. Lemmon Survey MPS 456397
2013 02 17.38274 10 26 42.36 +10 56 41.9 20.2 V G96 – Mt. Lemmon Survey MPS 456397
2013 02 17.39015 10 26 41.89 +10 56 43.9 20.2 V G96 – Mt. Lemmon Survey MPS 456397
2013 02 17.39755 10 26 41.35 +10 56 45.3 19.9 V G96 – Mt. Lemmon Survey MPS 456397
2013 03 13.21171 10 03 24.84 +12 16 16.4 20.5 V G96 – Mt. Lemmon Survey MPS 460526
2013 03 13.21227 10 03 24.84 +12 16 16.8 20.5 V G96 – Mt. Lemmon Survey MPS 460526
2013 03 13.21700 10 03 24.58 +12 16 17.0 20.5 V G96 – Mt. Lemmon Survey MPS 460526
2013 03 13.21758 10 03 24.55 +12 16 17.3 20.5 V G96 – Mt. Lemmon Survey MPS 460526
2013 03 13.22497 10 03 24.12 +12 16 18.1 19.7 V G96 – Mt. Lemmon Survey MPS 460526
2013 03 13.22552 10 03 24.12 +12 16 18.1 20.1 V G96 – Mt. Lemmon Survey MPS 460526
2013 03 13.23031 10 03 23.94 +12 16 18.3 20.2 V G96 – Mt. Lemmon Survey MPS 460526
2013 03 13.23087 10 03 23.94 +12 16 18.3 20.2 V G96 – Mt. Lemmon Survey MPS 460526
2015 09 09.51645 03 11 45.573 +21 39 00.17 21.3 w F51 – Pan-STARRS 1, Haleakala MPS 626595
2015 09 09.51775 03 11 45.636 +21 39 00.52 21.5 w F51 – Pan-STARRS 1, Haleakala MPS 626595
2015 09 09.52823 03 11 46.014 +21 39 04.01 21.4 w F51 – Pan-STARRS 1, Haleakala MPS 626595
2015 09 09.52952 03 11 46.061 +21 39 04.61 21.4 w F51 – Pan-STARRS 1, Haleakala MPS 626595
2015 09 09.53999 03 11 46.454 +21 39 08.03 21.3 w F51 – Pan-STARRS 1, Haleakala MPS 626595
2015 09 09.54130 03 11 46.492 +21 39 08.52 21.2 w F51 – Pan-STARRS 1, Haleakala MPS 626595
2015 09 09.55179 03 11 46.884 +21 39 11.90 21.4 w F51 – Pan-STARRS 1, Haleakala MPS 626595
2015 09 09.55309 03 11 46.927 +21 39 12.45 21.4 w F51 – Pan-STARRS 1, Haleakala MPS 626595
2015 10 08.42729 03 17 01.763 +23 34 35.93 20.5 w F51 – Pan-STARRS 1, Haleakala MPS 631046
2015 10 08.43910 03 17 01.500 +23 34 37.64 20.6 w F51 – Pan-STARRS 1, Haleakala MPS 631046
2015 10 08.45087 03 17 01.231 +23 34 39.21 20.5 w F51 – Pan-STARRS 1, Haleakala MPS 631046
2015 10 08.46263 03 17 00.960 +23 34 40.83 20.6 w F51 – Pan-STARRS 1, Haleakala MPS 631046
2015 10 09.42406 03 16 40.801 +23 36 40.03 20.8 w F51 – Pan-STARRS 1, Haleakala MPS 635375
2015 10 09.43582 03 16 40.509 +23 36 41.65 20.6 w F51 – Pan-STARRS 1, Haleakala MPS 635375
2015 10 09.44760 03 16 40.210 +23 36 43.12 20.6 w F51 – Pan-STARRS 1, Haleakala MPS 635375
2015 10 09.45938 03 16 39.910 +23 36 44.62 20.6 w F51 – Pan-STARRS 1, Haleakala MPS 635375
2015 10 13.43446 03 14 53.84 +23 43 21.8 21.2 r G45 – Space Surveillance Telescope, Atom Site MPS 635375
2015 10 13.44032 03 14 53.68 +23 43 22.6 20.7 r G45 – Space Surveillance Telescope, Atom Site MPS 635375
2015 10 13.44612 03 14 53.45 +23 43 22.9 20.5 r G45 – Space Surveillance Telescope, Atom Site MPS 635375
2015 10 13.44689 03 14 53.47 +23 43 23.0 20.9 r G45 – Space Surveillance Telescope, Atom Site MPS 635375
2015 10 13.45245 03 14 53.29 +23 43 23.6 20.4 r G45 – Space Surveillance Telescope, Atom Site MPS 635375
2015 10 14.42990 03 14 22.09 +23 44 37.9 20.6 r G45 – Space Surveillance Telescope, Atom Site MPS 635375
2015 10 14.43590 03 14 21.86 +23 44 38.1 20.3 r G45 – Space Surveillance Telescope, Atom Site MPS 635375
2015 10 14.44176 03 14 21.65 +23 44 38.1 20.7 r G45 – Space Surveillance Telescope, Atom Site MPS 635375
2015 10 14.44254 03 14 21.61 +23 44 38.7 20.8 r G45 – Space Surveillance Telescope, Atom Site MPS 635375
2015 10 14.45386 03 14 21.20 +23 44 39.7 19.6 r G45 – Space Surveillance Telescope, Atom Site MPS 635375
2015 11 03.33800 02 57 45.99 +23 33 00.4 20.1 r G45 – Space Surveillance Telescope, Atom Site MPS 650236
2015 11 03.36249 02 57 44.38 +23 32 56.7 20.3 r G45 – Space Surveillance Telescope, Atom Site MPS 650236
2015 11 03.36354 02 57 44.33 +23 32 56.9 19.8 r G45 – Space Surveillance Telescope, Atom Site MPS 650236
2015 11 03.37004 02 57 43.91 +23 32 55.7 20.2 r G45 – Space Surveillance Telescope, Atom Site MPS 650236
2015 11 03.37543 02 57 43.55 +23 32 55.2 20.3 r G45 – Space Surveillance Telescope, Atom Site MPS 650236
2015 11 03.38170 02 57 43.14 +23 32 53.7 20.0 r G45 – Space Surveillance Telescope, Atom Site MPS 650236
2015 11 03.69251 02 57 23.91 +23 32 08.9 19.8 R D29 – Purple Mountain Observatory, XuYi Station MPS 645049
